This demonstration page uses our WeatherBlox Daily Observations layout. Learn more.

Left ArrowRight Arrow

Hourly Observations for November 28, 2016

Temp ( °F °C ) Dew Point ( °F °C ) Humidity (%) Winds ( mph kmh ) Pressure ( in mb ) Visibility ( mi km ) Precip ( " mm )
12:15 am 00:15 Clear 43 5.9 32 undefined 66 66 SW 13 20 29.26 991 10 16 N/A
12:35 am 00:35 Clear 43 6.2 31 -0.5 63 63 SW 10 17 29.26 991 10 16 N/A
12:55 am 00:55 Clear 41 5.2 31 -0.3 68 68 SW 10 17 29.23 990 10 16 N/A
1:15 am 01:15 Clear 42 5.7 31 -0.5 65 65 WSW 12 19 29.23 990 10 16 N/A
1:35 am 01:35 Clear 42 5.8 31 -0.7 63 63 WSW 15 24 29.23 990 10 16 N/A
1:55 am 01:55 Clear 42 5.7 31 -0.7 64 64 WSW 15 24 29.23 990 10 16 N/A
2:15 am 02:15 Clear 42 5.3 31 -0.7 66 66 W 15 24 29.23 990 10 16 N/A
2:35 am 02:35 Clear 40 4.6 31 -0.6 69 69 W 14 22 29.26 991 10 16 N/A
2:55 am 02:55 Clear 39 4.1 31 -0.5 72 72 W 13 20 29.26 991 10 16 N/A
3:15 am 03:15 Clear 40 4.4 31 -0.5 71 71 W 13 20 29.26 991 10 16 N/A
3:35 am 03:35 Clear 40 4.4 31 -0.5 71 71 W 13 20 29.23 990 10 16 N/A
3:55 am 03:55 Clear 39 3.7 31 -0.6 74 74 W 10 17 29.23 990 10 16 N/A
4:15 am 04:15 Clear 37 3 31 -0.8 76 76 W 10 17 29.23 990 10 16 N/A
4:35 am 04:35 Clear 38 3.4 31 -0.6 75 75 W 13 20 29.23 990 10 16 N/A
4:55 am 04:55 Clear 39 3.9 31 -0.8 72 72 W 14 22 29.23 990 10 16 N/A
5:15 am 05:15 Clear 39 4 30 -1 70 70 W 14 22 29.23 990 10 16 N/A
5:35 am 05:35 Clear 39 4 30 -1 70 70 WSW 14 22 29.23 990 10 16 N/A
5:55 am 05:55 Clear 40 4.2 30 -1.1 69 69 WSW 15 24 29.23 990 10 16 N/A
6:15 am 06:15 Clear 40 4.5 30 -1.2 67 67 W 15 24 29.23 990 10 16 N/A
6:35 am 06:35 Clear 40 4.3 30 -1.3 67 67 W 15 24 29.23 990 10 16 N/A
6:55 am 06:55 Clear 39 4.1 29 -1.5 67 67 W 13 20 29.23 990 10 16 N/A
7:15 am 07:15 Clear 39 3.7 29 -1.6 69 69 WSW 12 19 29.23 990 10 16 N/A
7:35 am 07:35 Clear 38 3.5 29 -1.7 69 69 W 10 17 29.23 990 10 16 N/A
7:55 am 07:55 Sunny 38 3.1 28 -2 70 70 W 10 17 29.23 990 10 16 N/A
8:15 am 08:15 Sunny 38 3.1 28 -2 70 70 W 9 15 29.26 991 10 16 N/A
8:35 am 08:35 Sunny 38 3.2 28 -2.1 69 69 W 10 17 29.26 991 10 16 N/A
8:55 am 08:55 Sunny 39 3.7 28 -2.3 65 65 W 9 15 29.29 992 10 16 N/A
9:15 am 09:15 Sunny 41 5 29 -1.9 61 61 W 10 17 29.29 992 10 16 N/A
9:35 am 09:35 Sunny 43 6.2 28 -2.3 55 55 W 13 20 29.26 991 10 16 N/A
9:55 am 09:55 Sunny 44 6.9 27 -2.9 50 50 W 14 22 29.26 991 10 16 N/A
10:15 am 10:15 Sunny 45 7.4 27 -3 48 48 W 16 26 29.26 991 10 16 N/A
10:35 am 10:35 Sunny 47 8.1 27 -2.8 46 46 W 21 33 29.26 991 10 16 N/A
10:55 am 10:55 Sunny 48 8.7 26 -3.2 43 43 WNW 21 33 29.26 991 10 16 N/A
11:15 am 11:15 Sunny 49 9.3 26 -3.5 41 41 WNW 18 30 29.23 990 10 16 N/A
11:35 am 11:35 Sunny 50 10.2 26 -3.5 38 38 WNW 17 28 29.23 990 10 16 N/A
11:55 am 11:55 Sunny 51 10.7 24 -4.4 35 35 WNW 20 31 29.21 989 10 16 N/A
12:15 pm 12:15 Sunny 52 10.9 24 -4.6 34 34 WNW 21 33 29.21 989 10 16 N/A
12:35 pm 12:35 Sunny 52 10.9 22 -5.7 31 31 WNW 30 48 29.21 989 10 16 N/A
12:55 pm 12:55 Sunny 52 11.1 23 -5 32 32 NW 26 43 29.18 988 10 16 N/A
1:15 pm 13:15 Sunny 53 11.5 24 -4.6 32 32 W 22 35 29.18 988 10 16 N/A
1:35 pm 13:35 Sunny 53 11.5 23 -5.2 31 31 WNW 18 30 29.18 988 10 16 N/A
1:55 pm 13:55 Sunny 53 11.6 23 -5.2 31 31 WNW 21 33 29.15 987 10 16 N/A
2:15 pm 14:15 Sunny 54 12 22 -5.3 30 30 WNW 17 28 29.15 987 10 16 N/A
2:35 pm 14:35 Sunny 54 12.1 23 -5.1 30 30 W 21 33 29.15 987 10 16 N/A
2:55 pm 14:55 Sunny 53 11.6 22 -5.5 30 30 W 22 35 29.15 987 10 16 N/A
3:15 pm 15:15 Partly Cloudy 53 11.6 22 -5.7 30 30 WNW 23 37 29.15 987 10 16 N/A
3:35 pm 15:35 Partly Cloudy 53 11.5 22 -5.6 30 30 W 20 31 29.21 989 10 16 N/A
3:55 pm 15:55 Sunny 52 10.9 20 -6.6 29 29 WNW 18 30 29.21 989 10 16 N/A
4:15 pm 16:15 Sunny 52 10.9 21 -6.2 30 30 WNW 16 26 29.21 989 10 16 N/A
4:35 pm 16:35 Sunny 51 10.3 21 -6.3 31 31 WNW 16 26 29.21 989 10 16 N/A
4:55 pm 16:55 Sunny 49 9.5 21 -6 33 33 W 13 20 29.23 990 10 16 N/A
5:15 pm 17:15 Clear 47 8.6 21 -6.3 35 35 W 16 26 29.26 991 10 16 N/A
5:35 pm 17:35 Clear 46 8 20 -6.5 35 35 W 14 22 29.26 991 10 16 N/A
5:55 pm 17:55 Clear 45 7 21 -6.1 39 39 W 14 22 29.26 991 10 16 N/A
6:15 pm 18:15 Clear 44 6.5 21 -6 41 41 W 13 20 29.29 992 10 16 N/A
6:35 pm 18:35 Clear 43 6 21 -5.9 43 43 W 12 19 29.29 992 10 16 N/A
6:55 pm 18:55 Clear 41 5.1 22 -5.8 46 46 W 10 17 29.32 993 10 16 N/A
7:15 pm 19:15 Clear 41 5.2 21 -6 45 45 W 12 19 29.32 993 10 16 N/A
7:35 pm 19:35 Clear 41 5.2 21 -6.2 44 44 W 13 20 29.35 994 10 16 N/A
7:55 pm 19:55 Clear 42 5.8 20 -6.5 41 41 WSW 14 22 29.35 994 10 16 N/A
8:15 pm 20:15 Clear 41 5.2 21 -6.2 44 44 W 13 20 29.35 994 10 16 N/A
8:35 pm 20:35 Clear 40 4.3 21 -6 47 47 W 10 17 29.35 994 10 16 N/A
8:55 pm 20:55 Clear 39 4 21 -6 48 48 W 13 20 29.35 994 10 16 N/A
9:15 pm 21:15 Clear 39 3.9 21 -6 49 49 W 15 24 29.38 995 10 16 N/A
9:35 pm 21:35 Clear 38 3.6 22 -5.6 51 51 W 14 22 29.38 995 10 16 N/A
9:55 pm 21:55 Clear 38 3.6 22 -5.6 51 51 W 14 22 29.38 995 10 16 N/A
10:15 pm 22:15 Clear 37 3 22 -5.6 54 54 W 14 22 29.41 996 10 16 N/A
10:35 pm 22:35 Clear 37 2.8 22 -5.5 55 55 W 14 22 29.41 996 10 16 N/A
10:55 pm 22:55 Clear 37 3 22 -5.5 54 54 W 13 20 29.41 996 10 16 N/A
11:15 pm 23:15 Clear 37 2.6 22 -5.3 56 56 W 13 20 29.44 997 10 16 N/A
11:35 pm 23:35 Clear 36 2.3 23 -5.2 58 58 W 12 19 29.44 997 10 16 N/A
11:55 pm 23:55 Clear 35 1.8 23 -5 61 61 W 12 19 29.44 997 10 16 N/A

Powered by AerisWeather